Weather History for CWGB - May, 2013

Change the Weather History Date:

Thursday, May 16, 2013

  Actual Average Record
Temperature  
Mean Temperature 56 °F -  
Max Temperature 61 °F - - ()
Min Temperature 51 °F - - ()
Degree Days  
Heating Degree Days 9    
Growing Degree Days 6 (Base 50)    
Moisture  
Dew Point 50 °F    
Average Humidity 83    
Maximum Humidity 94    
Minimum Humidity 70    
Precipitation  
Precipitation 0.02 in - - ()
Sea Level Pressure  
Sea Level Pressure 29.95 in    
Wind  
Wind Speed 4 mph ()    
Max Wind Speed 9 mph    
Max Gust Speed -    
T = Trace of Precipitation, MM = Missing Value Source: Averaged Metar Reports

Daily Weather History Graph

Daily Weather History Graph

Search for Another Location

Airport or City:

Trip Planner

Search our weather history database for the weather conditions in past years. The results will help you decide how hot, cold, wet, or windy it might be!

Date:

Astronomy

May. 16, 2013 Rise Set
Actual Time 5:31 AM PDT 8:55 PM PDT
Civil Twilight 4:52 AM PDT 9:34 PM PDT
Nautical Twilight 4:00 AM PDT 10:26 PM PDT
Astronomical Twilight 2:52 AM PDT 11:36 PM PDT
Moon 11:21 AM PDT (5/16) 1:10 AM PDT (5/16)
Length of Visible Light 16h 42m
Length of Day
15h 24m
Waxing Crescent, 36% of the Moon is Illuminated
May 16
Waxing Crescent
May 17
First Quarter
May 24
Full
May 31
Last Quarter
Jun 8
New

Hourly Weather History & Observations

Time (PDT) Temp. Dew Point Humidity Pressure Visibility Wind Dir Wind Speed Gust Speed Precip Events Conditions
12:00 AM 52.9 °F 48.4 °F 85% 29.99 in - SW 5.8 mph - N/A   Unknown
1:00 AM 52.9 °F 48.4 °F 85% 29.99 in - West 2.3 mph - N/A   Unknown
2:00 AM 52.5 °F 48.2 °F 85% 29.99 in - WSW 2.3 mph - N/A   Unknown
3:00 AM 52.2 °F 48.6 °F 88% 29.98 in - SE 3.5 mph - N/A   Unknown
4:00 AM 52.7 °F 49.1 °F 88% 29.98 in - ESE 4.6 mph - N/A   Unknown
5:00 AM 53 °F 49 °F 80% 29.97 in - ESE 2.3 mph - -  
5:00 AM 52.5 °F 48.7 °F 87% 29.97 in - ESE 2.3 mph - N/A   Unknown
6:00 AM 51.8 °F 48.7 °F 89% 29.97 in - ESE 2.3 mph - 0.02 in   Unknown
7:00 AM 51.6 °F 48.9 °F 90% 29.98 in - SSE 2.3 mph - N/A   Unknown
8:00 AM 51.6 °F 49.1 °F 91% 29.99 in - South 2.3 mph - N/A   Unknown
9:00 AM 51.4 °F 49.1 °F 92% 29.99 in - ESE 3.5 mph - N/A   Unknown
10:00 AM 52.2 °F 50.4 °F 94% 29.99 in - ESE 5.8 mph - N/A   Unknown
11:00 AM 55 °F 52 °F 87% 29.98 in - East 3.5 mph - -  
11:00 AM 55.0 °F 52.2 °F 90% 29.98 in - East 3.5 mph - N/A   Unknown
12:00 PM 55.2 °F 49.8 °F 82% 29.98 in - East 3.5 mph - N/A   Unknown
1:00 PM 56.1 °F 50.2 °F 80% 29.97 in - ENE 4.6 mph - N/A   Unknown
2:00 PM 58.1 °F 51.3 °F 78% 29.96 in - East 2.3 mph - N/A   Unknown
3:00 PM 59.4 °F 49.6 °F 70% 29.94 in - NE 2.3 mph - N/A   Unknown
4:00 PM 60.1 °F 50.5 °F 71% 29.93 in - West 3.5 mph - N/A   Unknown
5:00 PM 60 °F 53 °F 72% 29.91 in - WNW 5.8 mph - -  
5:00 PM 60.4 °F 53.2 °F 77% 29.91 in - WNW 5.8 mph - N/A   Unknown
6:00 PM 61.0 °F 53.2 °F 76% 29.89 in - WNW 5.8 mph - N/A   Unknown
7:00 PM 58.6 °F 52.0 °F 79% 29.87 in - WNW 5.8 mph - N/A   Unknown
8:00 PM 59.4 °F 52.2 °F 77% 29.87 in - WNW 9.2 mph - N/A   Unknown
9:00 PM 58.3 °F 51.6 °F 78% 29.87 in - WNW 8.1 mph - N/A   Unknown
10:00 PM 57.0 °F 52.2 °F 84% 29.89 in - WSW 9.2 mph - N/A   Unknown
11:00 PM 56 °F 52 °F 82% 29.89 in - WSW 8.1 mph - -  
11:00 PM 56.1 °F 52.0 °F 86% 29.89 in - WSW 8.1 mph - N/A   Unknown